RH
20 20 19 18 19 18 14 9 8 9 12 15 16 17 12 14 16 16 16 16 17 18 20 20 18 16 14 12 10 21 32 31 31 27 27 26 26 24 24 33 30 31 36 36 35
16 15 14 16 17 14 8 6 6 5 7 10 14 18 16 19 23 22 20 20 19 18 18 21 23 21 23 20 18 22 35 36 35 34 31 26 25 23 26 29 31 35 36 36 35
11 9 9 9 6 4 2 6 8 8 8 10 13 16 22 27 22 19 17 15 14 15 16 19 19 19 22 25 27 28 30 34 35 34 31 27 26 24 26 26 30 31 31 33 33
13 12 9 8 8 7 4 7 10 9 10 11 13 16 18 17 21 22 20 20 20 19 19 17 17 22 26 32 30 26 28 30 30 34 29 31 30 31 30 32 34 36 36 36 35
14 13 12 12 12 10 7 10 11 10 11 14 16 19 24 23 23 24 26 26 26 24 22 22 22 22 23 24 26 27 28 29 30 33 33 33 32 29 34 36 36 37 37 36 36
14 14 14 14 13 13 12 11 10 10 13 16 19 19 22 22 26 28 32 32 31 29 28 27 26 26 27 27 28 32 35 30 28 33 34 36 34 34 35 36 36 36 35 31 26
15 14 13 11 10 9 8 9 9 12 15 19 20 21 24 27 28 30 36 34 30 30 31 30 29 28 29 28 35 36 33 34 34 34 34 38 37 36 35 36 36 34 31 29 29
15 14 12 11 10 10 10 10 12 13 17 19 20 26 19 27 27 34 33 36 33 31 30 28 30 34 33 35 33 35 32 34 36 37 39 40 40 38 36 36 33 31 32 33 33
8 6 7 8 9 10 10 11 14 16 21 23 23 23 21 28 27 25 26 26 24 27 31 31 35 33 36 35 33 31 30 33 40 43 42 40 38 36 35 34 35 36 36 37 36
8 6 8 10 12 14 12 13 18 19 20 18 18 20 24 25 24 22 25 29 33 34 30 34 34 34 21 19 32 35 36 33 38 38 39 34 34 36 40 42 44 45 45 43 39
9 10 10 12 14 15 14 15 17 18 15 16 15 14 12 12 12 14 14 17 17 19 26 30 36 23 22 23 24 25 26 25 32 38 36 32 35 46 50 53 55 54 51 48 46
11 12 12 13 15 15 14 15 16 15 15 15 14 13 13 16 18 18 19 17 17 16 25 33 26 24 28 30 28 23 23 26 28 36 29 39 46 58 62 60 58 56 55 56 55
12 13 14 14 15 15 15 15 20 15 16 18 18 19 19 20 21 21 21 19 19 20 30 26 24 28 29 26 22 23 26 26 28 25 26 38 50 63 65 66 68 68 65 64 65
14 13 15 16 16 14 15 17 18 20 18 21 22 26 23 22 25 27 23 22 22 26 29 29 33 30 29 23 21 22 21 18 21 29 29 40 52 71 72 71 75 67 59 58 57
15 11 14 15 16 15 19 25 26 28 26 23 23 27 27 25 28 26 23 23 25 27 29 31 32 32 26 27 24 24 17 16 28 28 30 34 44 75 81 72 60 52 50 48 45
16 10 15 15 17 17 19 20 28 20 29 26 25 31 30 28 28 30 26 25 27 29 29 30 33 32 31 26 26 21 12 28 32 29 39 36 33 75 74 60 49 46 45 45 40
17 11 15 17 17 19 21 24 21 25 30 28 30 30 30 30 30 28 26 24 27 28 28 31 31 32 29 26 28 18 14 21 27 33 36 31 32 64 50 48 47 47 48 45 46
18 11 15 17 19 21 23 21 23 29 30 31 32 32 30 34 33 31 33 33 35 35 37 34 33 32 33 32 38 30 32 23 29 36 30 34 66 58 50 51 50 54 50 51 33
20 12 16 18 20 22 23 22 27 29 32 32 32 32 35 38 36 33 34 40 39 39 37 38 36 34 30 32 38 34 32 39 45 48 52 57 81 63 50 56 59 52 47 35 30
21 12 19 20 23 24 24 23 28 31 33 33 34 35 38 36 38 37 38 43 42 41 40 38 35 31 31 35 40 41 42 28 38 46 43 43 86 70 54 55 56 49 35 29 49
22 15 20 25 28 28 25 25 29 31 34 33 35 37 37 36 36 38 41 43 45 44 42 40 38 32 31 34 40 38 29 26 30 40 58 66 50 56 59 58 52 38 28 55 47
24 18 21 27 29 31 28 27 28 32 33 34 37 39 39 38 40 41 44 44 44 45 45 40 37 31 27 35 43 37 31 31 29 32 36 45 46 56 55 54 40 42 59 50 50
26 20 21 24 29 32 31 29 30 32 34 34 38 41 38 39 42 44 44 43 45 46 45 40 35 32 23 37 36 37 24 29 36 39 36 48 45 52 53 39 39 63 53 51 58
29 25 25 25 31 36 33 33 33 35 38 40 41 40 41 41 40 40 43 42 44 45 44 42 34 27 20 20 27 20 16 31 38 44 44 49 50 32 29 62 58 57 47 63 67
30 29 26 27 32 39 37 35 38 42 45 41 40 42 41 39 40 39 39 42 44 45 45 41 28 19 14 16 13 14 26 33 40 50 48 38 32 49 76 70 60 59 61 76 79
32 30 28 30 35 41 39 37 38 43 46 43 42 42 39 40 42 40 40 44 43 41 39 30 20 17 9 11 16 28 48 47 45 42 44 41 52 66 74 59 63 61 67 80 88
30 31 32 34 40 42 40 38 40 41 40 41 41 42 40 41 40 40 40 38 41 37 29 22 16 9 10 15 19 56 44 51 50 52 49 59 60 74 58 70 76 68 76 83 87
Wind_Speed
8 8 8 9 11 12 13 13 13 13 12 10 11 11 10 10 9 9 9 8 7 6 6 5 5 7 7 9 10 11 10 10 9 4 6 7 7 9 8 4 7 6 8 7 11
11 11 11 10 10 10 11 11 11 10 9 8 8 10 9 9 8 7 8 9 8 6 7 6 2 4 6 6 8 7 8 8 6 8 10 11 9 6 3 5 7 9 10 12 16
12 13 11 10 9 8 7 8 10 10 8 7 7 8 8 7 9 9 11 11 10 8 7 6 6 7 9 9 9 7 5 1 2 7 11 11 9 6 7 7 7 8 12 16 20
10 10 9 8 8 7 5 6 9 8 7 6 6 7 8 6 5 10 12 12 12 10 9 7 6 9 10 9 6 5 3 1 2 7 8 8 11 9 8 6 6 11 16 18 21
8 7 6 6 7 6 5 4 6 6 6 7 8 8 7 8 10 11 10 11 10 12 10 9 9 9 9 8 6 4 4 3 5 5 5 7 13 12 7 3 6 13 17 21 25
8 6 7 7 7 6 5 4 5 7 7 8 8 8 6 3 9 10 10 9 10 10 10 10 9 9 8 5 5 5 5 2 3 4 1 10 8 8 8 9 12 16 19 22 25
9 8 8 8 8 7 6 7 7 8 8 9 10 9 6 11 7 7 9 8 8 9 8 8 6 5 3 4 3 6 6 4 5 0 3 6 4 9 12 13 16 20 23 26 25
11 9 8 8 8 7 7 8 9 10 11 12 12 12 10 12 9 8 5 5 4 5 4 4 4 5 4 4 1 5 6 6 3 3 7 9 10 12 13 16 19 24 24 22 20
13 13 12 12 11 11 10 11 12 14 16 12 11 12 16 14 8 8 5 4 3 6 5 5 5 6 5 5 3 3 4 6 2 6 7 9 11 14 15 18 21 22 20 17 15
13 13 13 13 14 13 13 15 15 15 14 16 12 11 15 15 13 14 11 9 6 6 6 8 8 10 8 10 6 8 7 3 5 8 10 11 11 11 15 18 19 18 15 13 14
11 12 12 13 13 13 13 17 18 20 18 21 18 18 18 16 14 14 11 8 6 6 7 6 6 12 14 11 7 7 8 8 8 5 9 18 10 13 13 16 15 14 14 15 15
9 10 11 11 12 13 14 18 21 20 25 22 19 16 14 14 11 11 10 8 9 9 9 6 13 12 13 9 9 9 11 8 6 9 19 10 7 8 11 16 19 19 18 19 20
8 8 10 10 10 11 14 16 17 23 25 19 19 14 9 10 12 11 11 9 9 10 8 13 13 15 10 13 13 10 10 13 17 19 16 10 6 10 10 13 13 14 13 17 24
7 8 9 9 9 11 11 9 5 10 11 17 13 15 12 5 13 14 11 10 8 11 8 8 13 9 10 14 16 11 17 18 20 14 3 8 2 6 10 12 12 12 15 20 25
7 7 7 8 9 9 9 8 7 5 5 6 10 12 15 11 12 12 13 9 8 9 10 7 11 9 16 20 20 18 23 22 9 6 7 4 6 7 5 14 14 15 18 23 30
8 7 6 6 8 8 8 7 6 4 5 4 7 9 10 10 13 12 10 8 8 9 14 9 9 12 14 18 11 19 19 2 3 4 1 4 5 11 14 8 13 18 24 30 40
8 7 6 7 7 7 5 3 4 7 4 4 5 6 10 12 14 14 10 13 13 8 14 12 9 14 14 17 10 20 23 6 2 4 4 4 15 5 5 8 16 25 33 40 47
9 8 8 8 8 7 5 5 5 7 6 3 3 4 8 14 11 12 8 14 15 18 8 10 5 12 14 18 15 20 20 7 4 4 9 22 7 6 5 11 22 30 39 44 49
11 10 9 10 8 6 5 4 4 6 4 3 1 5 8 11 8 10 11 14 14 20 13 9 5 8 15 16 13 14 14 7 6 11 5 3 3 5 11 16 25 37 46 51 50
13 12 11 10 9 5 3 6 8 6 5 3 2 3 7 9 7 10 11 10 12 15 16 12 5 7 15 8 8 10 8 8 6 5 6 3 3 7 19 28 39 48 53 56 50
15 14 13 12 8 5 4 7 8 6 3 2 2 3 6 8 9 8 8 7 13 13 14 13 8 5 14 9 10 6 7 7 9 9 3 4 2 5 23 35 43 49 52 50 52
17 15 15 13 8 6 4 6 7 5 2 1 3 3 4 6 7 4 6 8 9 14 12 11 7 12 13 7 6 8 8 17 8 6 13 15 7 7 26 38 43 45 45 51 53
19 16 16 13 8 6 6 6 5 4 2 3 3 3 5 5 5 6 8 11 12 13 12 11 7 10 3 1 6 7 25 19 18 8 12 5 5 21 34 40 39 42 50 55 50
20 16 16 13 10 6 5 5 3 3 3 4 4 3 4 6 6 7 9 9 16 15 12 11 7 10 9 14 19 25 27 21 18 11 10 18 25 31 37 31 39 47 52 50 48
22 18 16 15 11 8 5 3 2 3 3 3 2 4 5 6 9 5 10 13 14 12 13 13 9 12 13 17 22 20 21 15 9 6 9 21 31 27 26 37 46 49 51 50 51
24 19 17 12 13 10 6 3 3 3 3 3 4 4 6 7 8 11 13 15 13 15 17 16 10 15 21 6 13 19 1 5 11 11 18 31 28 26 29 43 47 48 49 52 49
23 19 16 15 13 10 6 3 3 2 3 2 3 4 8 7 8 10 13 15 15 14 13 12 11 16 5 13 14 4 6 9 6 18 24 24 24 29 39 45 49 45 49 52 46
Wind_Direction
112 112 105 101 98 93 86 77 67 65 65 65 72 81 92 86 81 79 81 82 87 91 89 80 91 105 113 120 121 128 102 83 52 46 354 330 303 303 328 342 277 297 299 298 289
109 98 93 98 105 103 88 70 52 45 54 61 70 78 85 85 67 75 75 72 74 76 82 81 66 113 116 107 106 115 118 69 40 356 335 333 334 310 307 248 252 264 284 296 302
94 90 95 99 93 82 74 55 37 40 45 54 64 76 83 111 77 72 71 68 68 70 77 96 116 97 97 89 77 87 112 140 6 339 339 346 310 317 276 271 257 268 284 297 304
100 100 101 92 80 67 60 48 27 36 40 48 65 66 66 79 84 73 73 66 65 63 72 73 85 105 101 88 62 61 58 254 325 341 359 0 348 330 303 294 303 303 304 305 308
98 96 89 74 68 66 67 50 27 35 38 52 73 80 84 84 96 85 75 71 67 66 62 73 80 77 62 53 41 354 357 312 304 314 24 340 318 292 264 272 286 289 297 300 304
93 94 86 75 72 68 70 63 54 47 52 73 84 82 97 109 91 86 75 73 84 85 84 71 66 75 63 60 43 27 31 353 152 196 297 335 324 261 267 268 286 289 293 302 308
84 82 81 76 75 72 76 75 66 66 80 85 82 79 81 93 89 91 94 86 91 89 80 74 65 57 46 114 80 53 78 74 117 113 280 328 266 252 273 285 292 299 307 313 318
79 74 75 75 77 77 75 74 79 86 87 94 83 77 86 77 86 88 98 103 94 76 67 67 89 82 73 72 110 147 68 81 106 328 297 300 273 269 275 284 299 305 307 312 319
79 77 74 72 73 73 78 83 90 89 84 84 74 74 68 69 70 77 91 103 96 101 98 101 78 46 51 72 67 33 0 27 21 291 291 293 279 290 283 285 290 295 298 304 302
84 78 73 69 71 73 82 92 95 87 83 76 67 68 81 76 78 78 79 87 100 118 101 94 67 27 26 44 39 6 2 4 327 299 305 316 304 260 263 276 285 291 290 281 264
94 85 75 68 68 78 91 99 90 90 91 74 75 80 85 78 75 71 66 70 72 81 89 74 23 21 17 20 0 336 317 312 303 280 299 315 283 240 260 270 280 282 277 277 277
100 93 81 71 73 83 106 107 93 91 81 75 77 81 76 62 56 61 62 59 39 56 61 73 20 28 20 13 356 333 324 317 312 257 321 302 267 238 253 271 278 283 288 295 301
109 103 88 75 73 86 118 126 94 80 80 77 70 65 68 62 54 48 48 61 46 70 77 41 37 17 10 356 356 2 359 329 315 317 310 244 208 233 255 264 274 285 299 305 313
123 115 99 87 77 81 105 134 139 100 76 55 45 33 32 37 28 29 35 51 54 47 44 36 33 33 5 356 359 359 340 327 316 305 230 227 203 206 227 252 273 291 310 320 315
142 133 112 101 83 89 94 109 105 104 62 33 32 35 34 39 26 29 48 38 48 44 31 35 23 11 12 7 353 347 347 322 327 305 268 288 239 180 245 284 310 325 331 333 336
156 147 129 115 106 104 97 89 89 97 67 52 35 36 33 29 37 31 37 44 44 13 15 21 15 16 15 0 1 352 357 16 357 15 220 171 355 179 248 291 320 327 334 339 344
163 161 147 134 122 107 104 91 80 63 126 44 28 24 28 32 26 22 44 31 43 15 13 3 1 1 355 9 359 0 19 9 351 357 235 281 320 182 226 298 334 339 340 345 341
171 167 160 144 138 117 100 77 77 111 107 100 54 27 29 20 12 16 23 28 33 22 18 4 5 353 353 0 356 10 24 53 316 284 287 295 172 187 266 310 329 330 339 334 336
175 172 166 153 150 127 96 85 115 137 126 113 63 355 21 5 6 7 10 18 23 19 22 5 349 351 348 344 358 357 7 352 275 266 280 235 180 171 337 323 325 332 334 337 339
176 172 170 161 155 136 102 110 132 137 125 100 25 16 2 4 8 8 18 5 10 9 4 347 330 315 338 331 336 341 357 334 336 314 300 309 197 272 324 333 339 335 335 338 337
180 175 177 169 159 153 147 125 136 140 131 70 0 356 8 359 356 3 3 0 349 351 351 344 324 334 325 325 330 328 325 341 313 264 264 306 329 309 344 342 337 333 333 334 332
185 184 185 182 175 163 134 130 138 158 160 348 322 352 14 353 335 341 346 349 344 346 344 338 304 315 320 308 298 301 333 330 349 305 278 282 274 288 323 330 331 332 332 329 330
189 192 192 193 192 185 159 147 151 183 213 297 297 333 351 347 338 323 339 342 337 340 338 337 316 316 326 306 291 286 318 314 323 311 293 287 303 310 315 318 323 329 328 334 334
189 190 194 197 197 188 170 162 169 211 261 281 291 319 346 332 325 311 329 329 329 328 329 332 314 292 276 298 302 306 305 316 321 314 297 300 311 317 319 331 327 326 329 334 331
195 197 198 200 196 196 180 180 237 264 265 276 287 319 338 326 316 317 323 322 323 325 327 328 307 302 309 299 294 297 302 315 319 316 320 323 320 326 333 330 330 331 332 334 332
197 202 202 205 199 198 204 229 283 279 272 279 293 323 322 311 308 318 320 322 318 319 320 322 302 313 322 285 292 298 129 345 312 315 321 328 326 332 323 322 329 333 333 333 335
200 205 200 204 200 208 228 253 276 263 264 241 291 307 314 310 308 312 314 310 304 308 311 311 315 327 308 316 315 191 316 335 337 336 334 322 325 320 323 329 330 333 335 335 335